Regional Weather Roundup
Issued by NWS

Home | Current Version | Previous Version | Graphics & Text | Print | Product List | Glossary On
Versions: 1 2 3 4 5 6 7 8 9 10 11 12 13 14 15 16 17 18 19 20 21 22 23 24 25 26 27 28
000
ASUS45 KPSR 240010
RWRAZ

ARIZONA HOURLY REGIONAL WEATHER ROUNDUP
NATIONAL WEATHER SERVICE PHOENIX AZ
500 PM MST SAT SEP 23 2017

NOTE: FAIR INDICATES FEW OR NO CLOUDS BELOW 12,000 FEET WITH NO
SIGNIFICANT WEATHER AND/OR OBSTRUCTIONS TO VISIBILITY.

AZZ001>003-036-240100-
NORTHWEST ARIZONA

CITY           SKY/WX    TMP DP  RH WIND       PRES   REMARKS
BULLHEAD CITY  SUNNY     82  25  12 N12G17    29.72S
KINGMAN        SUNNY     69  25  19 NW12      29.84S
6HR MIN TEMP:  65; 6HR MAX TEMP:  73;

$$

AZZ004>008-015-016-018-240100-
NORTH CENTRAL ARIZONA

CITY           SKY/WX    TMP DP  RH WIND       PRES   REMARKS
GRAND CANYON   PTSUNNY   53  21  28 NW10G17   29.90R
6HR MIN TEMP:  53; 6HR MAX TEMP:  63;

WILLIAMS       MOSUNNY   57  16  19 SW8G15    29.91R
PRESCOTT       SUNNY     65  22  19 SW13G20   29.87R
6HR MIN TEMP:  63; 6HR MAX TEMP:  67;

FLAGSTAFF      SUNNY     56  15  20 SW14      29.91R
6HR MIN TEMP:  55; 6HR MAX TEMP:  59;

PAYSON           N/A     66  16  14 SW9G15    29.89S
PAGE           MOSUNNY   66  23  19 W13G25    29.76R
6HR MIN TEMP:  64; 6HR MAX TEMP:  73;

$$

AZZ009>014-017-240100-
NORTHEAST ARIZONA

CITY           SKY/WX    TMP DP  RH WIND       PRES   REMARKS
WINSLOW        SUNNY     71  10   9 SW18G26   29.82R
6HR MIN TEMP:  71; 6HR MAX TEMP:  76;

SAINT JOHNS    SUNNY     69  26  20 W25G36    29.83R
6HR MIN TEMP:  66; 6HR MAX TEMP:  74;

WINDOW ROCK    SUNNY     64  17  16 SW20G30   29.88R
6HR MIN TEMP:  50; 6HR MAX TEMP:  68; 6HR PCP: TRACE;

SHOW LOW       SUNNY     63  21  20 SW18G26   29.91S
$$

AZZ540-542>544-546-548-240100-
GREATER PHOENIX AREA

CITY           SKY/WX    TMP DP  RH WIND       PRES   REMARKS
PHOENIX        SUNNY     83  29  14 W14       29.69S
6HR MIN TEMP:  79; 6HR MAX TEMP:  86;

BUCKEYE        SUNNY     82  25  12 SW10G16   29.71S
GLENDALE       SUNNY     84  27  12 S9        29.72S
LUKE AFB       SUNNY     83  25  12 SW13      29.69S
6HR MIN TEMP:  79; 6HR MAX TEMP:  84;

DEER VALLEY    SUNNY     80  25  13 W7G17     29.71F
6HR MIN TEMP:  75; 6HR MAX TEMP:  82;

SCOTTSDALE     SUNNY     82  26  13 SW9       29.74R
6HR MIN TEMP:  77; 6HR MAX TEMP:  83;

MESA-FALCON    SUNNY     82  27  13 W6        29.72S
MESA-GATEWAY   SUNNY     82  27  13 W7        29.73S
CHANDLER       SUNNY     84  25  11 SW12      29.71S
$$

AZZ539-553-240100-
SOUTHWEST MARICOPA COUNTY AND PINAL COUNTY

CITY           SKY/WX    TMP DP  RH WIND       PRES   REMARKS
CASA GRANDE    NOT AVBL
GILA BEND      FAIR      84  28  13 NW12      29.69S
6HR MIN TEMP:  78; 6HR MAX TEMP:  85;

$$

AZZ503-504-507>509-240100-
SOUTHEAST ARIZONA

CITY           SKY/WX    TMP DP  RH WIND       PRES   REMARKS
TUCSON         SUNNY     84  26  12 W13       29.76S
6HR MIN TEMP:  79; 6HR MAX TEMP:  86;

DAVIS-MONTHAN  SUNNY     83  29  14 NW14      29.74S
6HR MIN TEMP:  80; 6HR MAX TEMP:  86;

RYAN FIELD     SUNNY     82  32  16 MISG      29.75S
NOGALES        SUNNY     79  36  21 SW13      29.82S
6HR MIN TEMP:  76; 6HR MAX TEMP:  82;

SIERRA VISTA   MOSUNNY   76  32  20 S16G23    29.86S
6HR MIN TEMP:  72; 6HR MAX TEMP:  80;

DOUGLAS        MOSUNNY   80  42  25 SW16      29.80S
6HR MIN TEMP:  77; 6HR MAX TEMP:  84;

SAFFORD        PTSUNNY   85  34  16 NW22G29   29.70S
6HR MIN TEMP:  78; 6HR MAX TEMP:  88;

$$

AZZ532-240100-
SOUTHWEST ARIZONA

CITY           SKY/WX    TMP DP  RH WIND       PRES   REMARKS
YUMA           SUNNY     85  32  15 W7        29.70S
6HR MIN TEMP:  78; 6HR MAX TEMP:  86;

$$

CAZ041-043-047-048-061-525>527-560>570-240100-
SOUTHERN CALIFORNIA

CITY           SKY/WX    TMP DP  RH WIND       PRES   REMARKS
DOWNTOWN L.A.  SUNNY     73  49  42 W6        29.82S
6HR MIN TEMP:  72; 6HR MAX TEMP:  76;

L.A. AIRPORT   MOSUNNY   70  57  63 W14       29.83S
6HR MIN TEMP:  69; 6HR MAX TEMP:  72;

SAN DIEGO      MOSUNNY   70  55  59 W9        29.85F
6HR MIN TEMP:  68; 6HR MAX TEMP:  71;

BURBANK        SUNNY     71  47  42 S8        29.82S
6HR MIN TEMP:  67; 6HR MAX TEMP:  74;

ONTARIO        MOSUNNY   73  48  41 W13       29.81S
6HR MIN TEMP:  66; 6HR MAX TEMP:  77;

RIVERSIDE      SUNNY     74  51  44 W14G23    29.81R
6HR MIN TEMP:  66; 6HR MAX TEMP:  77;

PALM SPRINGS   SUNNY     86  32  14 W18       29.74F
6HR MIN TEMP:  79; 6HR MAX TEMP:  87;

EL CENTRO NAS  MOSUNNY   86  21   9 N6        29.72S
6HR MIN TEMP:  79; 6HR MAX TEMP:  87;

IMPERIAL       SUNNY     86  31  13 N9        29.70S
6HR MIN TEMP:  79; 6HR MAX TEMP:  87;

BLYTHE         SUNNY     85  25  11 NW7       29.71S
6HR MIN TEMP:  78; 6HR MAX TEMP:  86;

NEEDLES        SUNNY     84  26  12 N5        29.73S
6HR MIN TEMP:  79; 6HR MAX TEMP:  86;

$$

NVZ020-UTZ003-240100-
SOUTHERN NEVADA-UTAH

CITY           SKY/WX    TMP DP  RH WIND       PRES   REMARKS
LAS VEGAS      MOSUNNY   73  20  13 N9        29.81S
6HR MIN TEMP:  69; 6HR MAX TEMP:  75;

SALT LAKE CITY LGT RAIN  51  40  65 N9        29.93R
6HR MIN TEMP:  51; 6HR MAX TEMP:  56; 6HR PCP:  0.01;

$$

NMZ009-TXZ055-240100-
NEW MEXICO-WEST TEXAS

CITY           SKY/WX    TMP DP  RH WIND       PRES   REMARKS
ALBUQUERQUE    PTSUNNY   74  43  32 SW12      29.79R
6HR MIN TEMP:  73; 6HR MAX TEMP:  81; 6HR PCP: TRACE;

EL PASO        MOSUNNY   90  43  19 SW15      29.71S
6HR MIN TEMP:  78; 6HR MAX TEMP:  91;

$$


........................KEY........................
SKY/WX - SKY CONDITION/WEATHER
TMP    - TEMPERATURE IN FAHRENHEIT
DP     - DEW POINT IN FAHRENHEIT
RH     - RELATIVE HUMIDITY IN PERCENT
WIND   - DIRECTION AND SPEED IN MILES PER HOUR (MPH)
VRB    - VARIABLE WIND DIRECTION
PRES   - MEAN SEA LEVEL PRESSURE IN INCHES OF MERCURY
         F - FALLING PRESSURE   R - RISING PRESSURE
         S - STEADY PRESSURE
VSB    - VISIBILITY IN MILES
HX     - HEAT INDEX IN FAHRENHEIT
WCI    - WIND CHILL INDEX IN FAHRENHEIT
TC     - TEMPERATURE IN CELSIUS WHICH IS ALSO KNOWN AS
         TEMPERATURE IN CENTIGRADE
AFB    - AIR FORCE BASE
         LUKE AFB IS LUKE AIR FORCE BASE
         DAVIS-MONTHAN IS DAVIS-MONTHAN AIR FORCE BASE
NAS    - NAVAL AIR STATION
         EL CENTRO NAS IS EL CENTRO NAVAL AIR STATION
N/A    - NOT AVAILABLE





USA.gov is the U.S. government's official web portal to all federal, state and local government web resources and services.